Time,TemperatureF,DewpointF,PressureIn,WindDirection,WindDirectionDegrees,WindSpeedMPH,WindSpeedGustMPH,Humidity,HourlyPrecipIn,Conditions,Clouds,dailyrainin,SoftwareType,DateUTC
2013-02-19 00:02:00,-999.0,-99.9,30.24,SE,127,12.0,19.0,-999,-99.99,,,-99.99,,2013-02-19 05:02:00,
2013-02-19 00:13:00,-999.0,-99.9,30.24,SE,129,12.0,16.0,-999,-99.99,,,-99.99,,2013-02-19 05:13:00,
2013-02-19 00:23:00,59.0,-99.9,30.24,North,-999,-999.0,-999.0,-999,-99.99,,,-99.99,,2013-02-19 05:23:00,
2013-02-19 00:33:00,-999.0,-99.9,30.24,SE,139,13.0,18.0,-999,-99.99,,,-99.99,,2013-02-19 05:33:00,
2013-02-19 00:43:00,-999.0,-99.9,30.24,SE,136,12.0,18.0,-999,-99.99,,,-99.99,,2013-02-19 05:43:00,
2013-02-19 00:53:00,59.0,-99.9,30.24,North,-999,-999.0,-999.0,-999,-99.99,,,-99.99,,2013-02-19 05:53:00,
2013-02-19 01:03:00,-999.0,-99.9,30.24,SE,141,14.0,17.0,-999,-99.99,,,-99.99,,2013-02-19 06:03:00,
2013-02-19 01:22:00,59.0,-99.9,30.24,North,-999,-999.0,-999.0,-999,-99.99,,,-99.99,,2013-02-19 06:22:00,
2013-02-19 01:33:00,59.0,-99.9,30.24,North,-999,-999.0,-999.0,-999,-99.99,,,-99.99,,2013-02-19 06:33:00,
2013-02-19 01:42:00,-999.0,-99.9,30.24,SSE,147,12.0,15.0,-999,-99.99,,,-99.99,,2013-02-19 06:42:00,
2013-02-19 01:53:00,60.0,-99.9,30.24,North,-999,-999.0,-999.0,-999,-99.99,,,-99.99,,2013-02-19 06:53:00,
2013-02-19 02:02:00,-999.0,-99.9,30.24,SE,144,11.0,15.0,-999,-99.99,,,-99.99,,2013-02-19 07:02:00,
2013-02-19 02:12:00,-999.0,-99.9,30.24,SE,133,10.0,13.0,-999,-99.99,,,-99.99,,2013-02-19 07:12:00,
2013-02-19 02:22:00,59.0,-99.9,30.24,North,-999,-999.0,-999.0,-999,-99.99,,,-99.99,,2013-02-19 07:22:00,
2013-02-19 02:33:00,-999.0,-99.9,30.23,SE,133,10.0,14.0,-999,-99.99,,,-99.99,,2013-02-19 07:33:00,
2013-02-19 02:42:00,-999.0,-99.9,30.23,SE,134,9.0,13.0,-999,-99.99,,,-99.99,,2013-02-19 07:42:00,
2013-02-19 02:52:00,-999.0,-99.9,30.23,SE,129,8.0,12.0,-999,-99.99,,,-99.99,,2013-02-19 07:52:00,
2013-02-19 03:02:00,-999.0,-99.9,30.22,ESE,120,7.0,11.0,-999,-99.99,,,-99.99,,2013-02-19 08:02:00,
2013-02-19 03:22:00,59.0,-99.9,30.22,North,-999,-999.0,-999.0,-999,-99.99,,,-99.99,,2013-02-19 08:22:00,
2013-02-19 03:32:00,-999.0,-99.9,30.22,SE,125,8.0,11.0,-999,-99.99,,,-99.99,,2013-02-19 08:32:00,
2013-02-19 03:42:00,59.0,-99.9,30.22,North,-999,-999.0,-999.0,-999,-99.99,,,-99.99,,2013-02-19 08:42:00,
2013-02-19 03:52:00,59.0,-99.9,30.21,North,-999,-999.0,-999.0,-999,-99.99,,,-99.99,,2013-02-19 08:52:00,
2013-02-19 04:22:00,-999.0,-99.9,30.20,SE,127,8.0,12.0,-999,-99.99,,,-99.99,,2013-02-19 09:22:00,
2013-02-19 04:32:00,-999.0,-99.9,30.20,SE,131,10.0,12.0,-999,-99.99,,,-99.99,,2013-02-19 09:32:00,
2013-02-19 04:42:00,-999.0,-99.9,30.19,SE,133,8.0,11.0,-999,-99.99,,,-99.99,,2013-02-19 09:42:00,
2013-02-19 04:53:00,59.0,-99.9,30.20,North,-999,-999.0,-999.0,-999,-99.99,,,-99.99,,2013-02-19 09:53:00,
2013-02-19 05:02:00,60.0,-99.9,30.20,North,-999,-999.0,-999.0,-999,-99.99,,,-99.99,,2013-02-19 10:02:00,
2013-02-19 05:22:00,-999.0,-99.9,30.20,SE,140,8.0,10.0,-999,-99.99,,,-99.99,,2013-02-19 10:22:00,
2013-02-19 05:42:00,-999.0,-99.9,30.19,SSE,147,10.0,11.0,-999,-99.99,,,-99.99,,2013-02-19 10:42:00,
2013-02-19 05:52:00,59.0,-99.9,30.19,North,-999,-999.0,-999.0,-999,-99.99,,,-99.99,,2013-02-19 10:52:00,
2013-02-19 06:02:00,60.0,-99.9,30.19,North,-999,-999.0,-999.0,-999,-99.99,,,-99.99,,2013-02-19 11:02:00,
2013-02-19 06:22:00,-999.0,-99.9,30.18,SSE,150,15.0,17.0,-999,-99.99,,,-99.99,,2013-02-19 11:22:00,
2013-02-19 06:32:00,-999.0,-99.9,30.19,SSE,152,13.0,15.0,-999,-99.99,,,-99.99,,2013-02-19 11:32:00,
2013-02-19 06:42:00,-999.0,-99.9,30.19,SSE,152,12.0,13.0,-999,-99.99,,,-99.99,,2013-02-19 11:42:00,
2013-02-19 06:52:00,-999.0,-99.9,30.19,SSE,155,11.0,13.0,-999,-99.99,,,-99.99,,2013-02-19 11:52:00,
2013-02-19 07:02:00,-999.0,-99.9,30.19,SSE,151,10.0,12.0,-999,-99.99,,,-99.99,,2013-02-19 12:02:00,
2013-02-19 07:22:00,59.0,-99.9,30.19,North,-999,-999.0,-999.0,-999,-99.99,,,-99.99,,2013-02-19 12:22:00,
2013-02-19 07:33:00,-999.0,-99.9,30.19,South,170,10.0,12.0,-999,-99.99,,,-99.99,,2013-02-19 12:33:00,
2013-02-19 07:42:00,59.0,-99.9,30.19,North,-999,-999.0,-999.0,-999,-99.99,,,-99.99,,2013-02-19 12:42:00,
2013-02-19 07:53:00,-999.0,-99.9,30.19,South,169,10.0,12.0,-999,-99.99,,,-99.99,,2013-02-19 12:53:00,
2013-02-19 08:02:00,59.0,-99.9,30.19,North,-999,-999.0,-999.0,-999,-99.99,,,-99.99,,2013-02-19 13:02:00,
2013-02-19 08:11:00,-999.0,-99.9,30.19,SSE,161,9.0,10.0,-999,-99.99,,,-99.99,,2013-02-19 13:11:00,
2013-02-19 08:22:00,-999.0,-99.9,30.19,SSE,166,9.0,10.0,-999,-99.99,,,-99.99,,2013-02-19 13:22:00,
2013-02-19 08:42:00,-999.0,-99.9,30.20,SSE,166,12.0,14.0,-999,-99.99,,,-99.99,,2013-02-19 13:42:00,
2013-02-19 08:52:00,-999.0,-99.9,30.20,SSE,162,10.0,11.0,-999,-99.99,,,-99.99,,2013-02-19 13:52:00,
2013-02-19 09:02:00,-999.0,-99.9,30.20,SSE,160,9.0,11.0,-999,-99.99,,,-99.99,,2013-02-19 14:02:00,
2013-02-19 09:12:00,-999.0,-99.9,30.21,SSE,165,9.0,11.0,-999,-99.99,,,-99.99,,2013-02-19 14:12:00,
2013-02-19 09:22:00,61.0,-99.9,30.21,North,-999,-999.0,-999.0,-999,-99.99,,,-99.99,,2013-02-19 14:22:00,
2013-02-19 09:33:00,-999.0,-99.9,30.20,SSE,159,10.0,12.0,-999,-99.99,,,-99.99,,2013-02-19 14:33:00,
2013-02-19 09:42:00,61.0,-99.9,30.21,North,-999,-999.0,-999.0,-999,-99.99,,,-99.99,,2013-02-19 14:42:00,
2013-02-19 09:52:00,-999.0,-99.9,30.21,SSE,161,8.0,10.0,-999,-99.99,,,-99.99,,2013-02-19 14:52:00,
2013-02-19 10:02:00,-999.0,-99.9,30.21,SSE,162,7.0,10.0,-999,-99.99,,,-99.99,,2013-02-19 15:02:00,
2013-02-19 10:22:00,-999.0,-99.9,30.22,SSE,166,5.0,7.0,-999,-99.99,,,-99.99,,2013-02-19 15:22:00,
2013-02-19 10:32:00,-999.0,-99.9,30.22,SSE,167,4.0,5.0,-999,-99.99,,,-99.99,,2013-02-19 15:32:00,
2013-02-19 10:42:00,-999.0,-99.9,30.22,SSE,167,4.0,5.0,-999,-99.99,,,-99.99,,2013-02-19 15:42:00,
2013-02-19 10:52:00,65.0,-99.9,30.22,North,-999,-999.0,-999.0,-999,-99.99,,,-99.99,,2013-02-19 15:52:00,
2013-02-19 11:02:00,-999.0,-99.9,30.22,South,173,9.0,11.0,-999,-99.99,,,-99.99,,2013-02-19 16:02:00,
2013-02-19 11:22:00,-999.0,-99.9,30.22,South,174,11.0,13.0,-999,-99.99,,,-99.99,,2013-02-19 16:22:00,
2013-02-19 11:32:00,-999.0,-99.9,30.21,South,175,11.0,12.0,-999,-99.99,,,-99.99,,2013-02-19 16:32:00,
2013-02-19 11:42:00,68.0,-99.9,30.22,North,-999,-999.0,-999.0,-999,-99.99,,,-99.99,,2013-02-19 16:42:00,
2013-02-19 11:52:00,-999.0,-99.9,30.21,South,185,14.0,18.0,-999,-99.99,,,-99.99,,2013-02-19 16:52:00,
2013-02-19 12:11:00,-999.0,-99.9,30.21,South,185,15.0,18.0,-999,-99.99,,,-99.99,,2013-02-19 17:11:00,
2013-02-19 12:21:00,-999.0,-99.9,30.21,South,191,14.0,20.0,-999,-99.99,,,-99.99,,2013-02-19 17:21:00,
2013-02-19 12:32:00,70.0,-99.9,30.20,North,-999,-999.0,-999.0,-999,-99.99,,,-99.99,,2013-02-19 17:32:00,
2013-02-19 12:42:00,-999.0,-99.9,30.20,South,183,17.0,19.0,-999,-99.99,,,-99.99,,2013-02-19 17:42:00,
2013-02-19 12:52:00,-999.0,-99.9,30.20,SSW,196,18.0,21.0,-999,-99.99,,,-99.99,,2013-02-19 17:52:00,
2013-02-19 13:02:00,-999.0,-99.9,30.19,South,190,15.0,20.0,-999,-99.99,,,-99.99,,2013-02-19 18:02:00,
2013-02-19 13:22:00,-999.0,-99.9,30.18,South,187,17.0,21.0,-999,-99.99,,,-99.99,,2013-02-19 18:22:00,
2013-02-19 13:32:00,-999.0,-99.9,30.18,South,188,17.0,21.0,-999,-99.99,,,-99.99,,2013-02-19 18:32:00,
2013-02-19 13:42:00,-999.0,-99.9,30.17,SSW,193,16.0,23.0,-999,-99.99,,,-99.99,,2013-02-19 18:42:00,
2013-02-19 13:52:00,-999.0,-99.9,30.17,South,186,19.0,24.0,-999,-99.99,,,-99.99,,2013-02-19 18:52:00,
2013-02-19 14:01:00,-999.0,-99.9,30.17,South,189,18.0,21.0,-999,-99.99,,,-99.99,,2013-02-19 19:01:00,
2013-02-19 14:22:00,70.0,-99.9,30.16,North,-999,-999.0,-999.0,-999,-99.99,,,-99.99,,2013-02-19 19:22:00,
2013-02-19 14:32:00,70.0,-99.9,30.15,North,-999,-999.0,-999.0,-999,-99.99,,,-99.99,,2013-02-19 19:32:00,
2013-02-19 14:52:00,-999.0,-99.9,30.15,SSW,202,17.0,22.0,-999,-99.99,,,-99.99,,2013-02-19 19:52:00,
2013-02-19 15:22:00,-999.0,-99.9,30.14,SSW,200,16.0,22.0,-999,-99.99,,,-99.99,,2013-02-19 20:22:00,
2013-02-19 15:32:00,-999.0,-99.9,30.14,SSW,197,17.0,20.0,-999,-99.99,,,-99.99,,2013-02-19 20:32:00,
2013-02-19 15:42:00,-999.0,-99.9,30.14,SSW,193,14.0,21.0,-999,-99.99,,,-99.99,,2013-02-19 20:42:00,
2013-02-19 15:52:00,71.0,-99.9,30.14,SSW,205,13.0,17.0,-999,-99.99,,,-99.99,,2013-02-19 20:52:00,
2013-02-19 16:02:00,71.0,-99.9,30.14,SSW,205,13.0,17.0,-999,-99.99,,,-99.99,,2013-02-19 21:02:00,
2013-02-19 16:11:00,71.0,-99.9,30.14,SSW,205,13.0,17.0,-999,-99.99,,,-99.99,,2013-02-19 21:11:00,
2013-02-19 16:22:00,71.0,-99.9,30.14,SSW,205,13.0,17.0,-999,-99.99,,,-99.99,,2013-02-19 21:22:00,